Location: Nairn
(57.5833°N, 3.8667°W)
Time: 03:13:08
(UTC+00:00)

USA 267 - Pass Details

Date: 07 August 2020
Orbit: 1101 x 1106 km, 123.0° (Epoch: 22 September)

Event Time Altitude Azimuth Distance (km) Brightness Sun altitude
Rises 02:15:26 0° 123° (ESE) 3,915 6.1 -12.4°
Reaches altitude 10° 02:17:57 10° 127° (SE) 2,959 5.4 -12.2°
Maximum altitude 02:24:25 60° 207° (SSW) 1,249 3.3 -11.8°
Drops below altitude 10° 02:30:54 10° 287° (WNW) 2,971 5.4 -11.4°
Sets 02:33:26 0° 291° (WNW) 3,931 6.0 -11.2°
